Find OneWeb SL0024

NORAD ID: 45137 Int'l Des: 2020-008 Owner: ONEWEB Country: UK Constellation: oneweb operational
LEOCIRCULARPOLARONEWEB_TYPE

当前视图

正在加载3D地球...

About OneWeb SL0024

OneWeb SL0024 (NORAD 45137) is a oneweb constellation satellite launched Feb 6, 2020 by ONEWEB of UK. It operates in LEO, CIRCULAR, POLAR, ONEWEB_TYPE orbit with a mass of 148.00 kg.

关于 OneWeb SL0024

正在加载描述...

即将过境

Passes for default location (London). Set your location on the main map for personalized predictions.

高度历史

Loading altitude history...

两行轨道根数

1 45137U 20008G 26168.65539912 .00007090 00000-0 20236-1 0 9993
2 45137 87.8839 36.1643 0001603 76.1826 283.9479 13.10448006308301
Epoch: Jun 17, 2026 • Age: 11 hours

当前状态

高度 1233.9 km
速度 7.25 km/s
星下点 81.77°N, 113.37°W
发射日期 Feb 6, 2020
运行时间 6.3 years
类型 internet

技术详情

分类 Payload
质量 148.00 kg
干质量 140.00 kg
总质量 148.00 kg
长度 1.30 m
直径 1.00 m
跨度 5.00 m
形状 Trapezoid+2 pan
制造商 ONEWUS
平台类型 ARROW
阶段状态 In Orbit
所有者/国家 ONEWEB/UK

Most Searched